Zurück zum Katalog

STARLINK-3942

AktivKommunikationVLEO
NORAD 52563·PAYLOAD·🇺🇸 United States

Gestartet May 13, 2022 von Vandenberg Space Force Base

Loading…

Nächste Überflüge (nächste 24 Stunden)

TLE

AktuellSource: CelesTrak SupGP

Epoche: Sep 15, 2026, 02:55 UTC

1 52563C 22051AG  26258.12201389  .00050239  00000+0  14375-2 0  2588
2 52563  53.1599 351.0045 0001089  87.8602 224.8781 15.35369999    14

Verfolge STARLINK-3942 in Echtzeit mit AllMySat

Download on the App Store